Time,TemperatureF,DewpointF,PressureIn,WindDirection,WindDirectionDegrees,WindSpeedMPH,WindSpeedGustMPH,Humidity,HourlyPrecipIn,Conditions,Clouds,dailyrainin,SoftwareType,DateUTC
2013-10-19 00:14:00,72.0,71.0,29.97,SE,134,1.0,3.0,96,0.00,,,0.00,,2013-10-19 04:14:00,
2013-10-19 00:24:00,72.0,71.0,29.97,SE,139,0.0,2.0,96,0.00,,,0.00,,2013-10-19 04:24:00,
2013-10-19 00:44:00,72.0,71.0,29.97,SE,142,0.0,2.0,96,0.00,,,0.00,,2013-10-19 04:44:00,
2013-10-19 00:54:00,71.0,70.0,29.96,SE,126,0.0,3.0,96,0.00,,,0.00,,2013-10-19 04:54:00,
2013-10-19 01:13:00,71.0,70.0,29.96,SE,139,1.0,4.0,96,0.00,,,0.00,,2013-10-19 05:13:00,
2013-10-19 01:23:00,71.0,70.0,29.96,SE,139,0.0,2.0,97,0.00,,,0.00,,2013-10-19 05:23:00,
2013-10-19 01:42:00,71.0,70.0,29.96,SE,144,0.0,3.0,97,0.00,,,0.00,,2013-10-19 05:42:00,
2013-10-19 01:52:00,71.0,70.0,29.96,SE,130,0.0,2.0,97,0.00,,,0.00,,2013-10-19 05:52:00,
2013-10-19 02:12:00,71.0,70.0,29.95,SE,130,0.0,2.0,97,0.00,,,0.00,,2013-10-19 06:12:00,
2013-10-19 02:22:00,70.0,69.0,29.95,SE,130,0.0,3.0,97,0.00,,,0.00,,2013-10-19 06:22:00,
2013-10-19 02:42:00,70.0,69.0,29.95,SE,130,0.0,1.0,97,0.00,,,0.00,,2013-10-19 06:42:00,
2013-10-19 02:52:00,70.0,69.0,29.95,SE,130,0.0,2.0,97,0.00,,,0.00,,2013-10-19 06:52:00,
2013-10-19 03:11:00,70.0,69.0,29.94,SE,130,0.0,2.0,97,0.00,,,0.00,,2013-10-19 07:11:00,
2013-10-19 03:22:00,70.0,69.0,29.94,SE,127,0.0,2.0,97,0.00,,,0.00,,2013-10-19 07:22:00,
2013-10-19 03:42:00,70.0,69.0,29.93,SE,127,0.0,2.0,98,0.00,,,0.00,,2013-10-19 07:42:00,
2013-10-19 03:52:00,70.0,69.0,29.94,SE,127,0.0,1.0,97,0.00,,,0.00,,2013-10-19 07:52:00,
2013-10-19 04:11:00,69.0,68.0,29.93,SE,127,0.0,0.0,97,0.00,,,0.00,,2013-10-19 08:11:00,
2013-10-19 04:22:00,69.0,68.0,29.93,SE,127,0.0,0.0,98,0.00,,,0.00,,2013-10-19 08:22:00,
2013-10-19 04:42:00,69.0,68.0,29.93,SE,127,0.0,0.0,98,0.00,,,0.00,,2013-10-19 08:42:00,
2013-10-19 04:52:00,69.0,68.0,29.93,SE,127,0.0,0.0,98,0.00,,,0.00,,2013-10-19 08:52:00,
2013-10-19 05:12:00,69.0,68.0,29.93,SE,127,0.0,0.0,98,0.00,,,0.00,,2013-10-19 09:12:00,
2013-10-19 05:22:00,69.0,68.0,29.94,SE,127,0.0,0.0,98,0.00,,,0.00,,2013-10-19 09:22:00,
2013-10-19 05:43:00,69.0,68.0,29.93,SE,127,0.0,2.0,98,0.00,,,0.00,,2013-10-19 09:43:00,
2013-10-19 05:54:00,69.0,68.0,29.93,SE,127,0.0,1.0,98,0.00,,,0.00,,2013-10-19 09:54:00,
2013-10-19 06:13:00,69.0,68.0,29.93,SE,127,0.0,1.0,98,0.00,,,0.00,,2013-10-19 10:13:00,
2013-10-19 06:23:00,69.0,68.0,29.94,SE,127,0.0,1.0,98,0.00,,,0.00,,2013-10-19 10:23:00,
2013-10-19 06:42:00,69.0,68.0,29.94,SE,127,0.0,0.0,98,0.00,,,0.00,,2013-10-19 10:42:00,
2013-10-19 06:53:00,69.0,68.0,29.94,SE,127,0.0,2.0,98,0.00,,,0.00,,2013-10-19 10:53:00,
2013-10-19 07:12:00,69.0,68.0,29.94,SE,127,0.0,0.0,98,0.00,,,0.00,,2013-10-19 11:12:00,
2013-10-19 07:22:00,69.0,68.0,29.94,SE,127,0.0,0.0,98,0.00,,,0.00,,2013-10-19 11:22:00,
2013-10-19 07:42:00,68.0,67.0,29.95,SE,127,1.0,2.0,98,0.00,,,0.00,,2013-10-19 11:42:00,
2013-10-19 07:52:00,68.0,67.0,29.95,SE,127,0.0,2.0,98,0.00,,,0.00,,2013-10-19 11:52:00,
2013-10-19 08:12:00,69.0,68.0,29.95,SE,127,0.0,2.0,98,0.00,,,0.00,,2013-10-19 12:12:00,
2013-10-19 08:22:00,69.0,68.0,29.95,SE,127,0.0,3.0,98,0.00,,,0.00,,2013-10-19 12:22:00,
2013-10-19 08:43:00,70.0,69.0,29.95,SE,127,0.0,2.0,98,0.00,,,0.00,,2013-10-19 12:43:00,
2013-10-19 08:52:00,72.0,71.0,29.96,SE,136,1.0,4.0,98,0.00,,,0.00,,2013-10-19 12:52:00,
2013-10-19 09:12:00,73.0,73.0,29.96,SE,140,1.0,3.0,99,0.00,,,0.00,,2013-10-19 13:12:00,
2013-10-19 09:22:00,74.0,73.0,29.96,SE,139,2.0,5.0,98,0.00,,,0.00,,2013-10-19 13:22:00,
2013-10-19 09:42:00,75.0,74.0,29.96,SE,145,1.0,4.0,98,0.00,,,0.00,,2013-10-19 13:42:00,
2013-10-19 09:52:00,76.0,75.0,29.96,SE,126,3.0,8.0,98,0.00,,,0.00,,2013-10-19 13:52:00,
2013-10-19 10:11:00,78.0,76.0,29.97,SE,126,2.0,8.0,93,0.00,,,0.00,,2013-10-19 14:11:00,
2013-10-19 10:22:00,79.0,75.0,29.97,SE,146,1.0,7.0,89,0.00,,,0.00,,2013-10-19 14:22:00,
2013-10-19 10:42:00,80.0,75.0,29.97,ESE,122,2.0,7.0,86,0.00,,,0.00,,2013-10-19 14:42:00,
2013-10-19 10:52:00,80.0,75.0,29.97,SE,143,3.0,7.0,84,0.00,,,0.00,,2013-10-19 14:52:00,
2013-10-19 11:11:00,81.0,75.0,29.97,SSW,198,1.0,6.0,81,0.00,,,0.00,,2013-10-19 15:11:00,
2013-10-19 11:22:00,83.0,76.0,29.97,SW,223,0.0,8.0,79,0.00,,,0.00,,2013-10-19 15:22:00,
2013-10-19 11:44:00,83.0,73.0,29.97,SSE,153,1.0,5.0,71,0.00,,,0.00,,2013-10-19 15:44:00,
2013-10-19 11:55:00,84.0,76.0,29.97,SE,146,1.0,7.0,78,0.00,,,0.00,,2013-10-19 15:55:00,
2013-10-19 12:14:00,85.0,75.0,29.97,SSE,150,0.0,4.0,73,0.00,,,0.00,,2013-10-19 16:14:00,
2013-10-19 12:24:00,85.0,73.0,29.96,SW,223,0.0,5.0,68,0.00,,,0.00,,2013-10-19 16:24:00,
2013-10-19 12:43:00,87.0,76.0,29.96,SE,139,3.0,8.0,70,0.00,,,0.00,,2013-10-19 16:43:00,
2013-10-19 12:53:00,90.0,76.0,29.95,SE,139,3.0,6.0,64,0.00,,,0.00,,2013-10-19 16:53:00,
2013-10-19 13:13:00,90.0,75.0,29.94,SE,139,2.0,11.0,62,0.00,,,0.00,,2013-10-19 17:13:00,
2013-10-19 13:22:00,92.0,76.0,29.93,SE,134,1.0,5.0,59,0.00,,,0.00,,2013-10-19 17:22:00,
2013-10-19 13:43:00,88.0,74.0,29.93,SSE,156,0.0,9.0,64,0.00,,,0.00,,2013-10-19 17:43:00,
2013-10-19 13:52:00,91.0,75.0,29.91,ESE,114,2.0,7.0,59,0.00,,,0.00,,2013-10-19 17:52:00,
2013-10-19 14:12:00,86.0,73.0,29.91,SE,138,2.0,7.0,66,0.00,,,0.00,,2013-10-19 18:12:00,
2013-10-19 14:22:00,89.0,74.0,29.90,WSW,248,0.0,8.0,62,0.00,,,0.00,,2013-10-19 18:22:00,
2013-10-19 14:42:00,86.0,74.0,29.90,SW,236,0.0,4.0,67,0.00,,,0.00,,2013-10-19 18:42:00,
2013-10-19 14:52:00,91.0,76.0,29.89,SSE,147,2.0,7.0,61,0.00,,,0.00,,2013-10-19 18:52:00,
2013-10-19 15:12:00,89.0,76.0,29.89,SE,134,0.0,4.0,65,0.00,,,0.00,,2013-10-19 19:12:00,
2013-10-19 15:22:00,87.0,74.0,29.88,ESE,117,3.0,7.0,66,0.00,,,0.00,,2013-10-19 19:22:00,
2013-10-19 15:42:00,90.0,73.0,29.88,WSW,238,1.0,5.0,58,0.00,,,0.00,,2013-10-19 19:42:00,
2013-10-19 15:52:00,88.0,71.0,29.88,SSW,209,0.0,4.0,58,0.00,,,0.00,,2013-10-19 19:52:00,
2013-10-19 16:12:00,87.0,72.0,29.88,WSW,253,2.0,7.0,62,0.00,,,0.00,,2013-10-19 20:12:00,
2013-10-19 16:22:00,86.0,74.0,29.88,SSE,150,1.0,6.0,67,0.00,,,0.00,,2013-10-19 20:22:00,
2013-10-19 16:42:00,87.0,73.0,29.88,SSW,196,0.0,3.0,64,0.00,,,0.00,,2013-10-19 20:42:00,
2013-10-19 16:52:00,87.0,73.0,29.88,South,190,2.0,5.0,64,0.00,,,0.00,,2013-10-19 20:52:00,
2013-10-19 17:11:00,86.0,73.0,29.88,SE,134,0.0,4.0,66,0.00,,,0.00,,2013-10-19 21:11:00,
2013-10-19 17:22:00,85.0,75.0,29.88,SSW,206,0.0,1.0,72,0.00,,,0.00,,2013-10-19 21:22:00,
2013-10-19 17:44:00,84.0,74.0,29.88,SE,146,0.0,4.0,73,0.00,,,0.00,,2013-10-19 21:44:00,
2013-10-19 17:54:00,85.0,75.0,29.88,SSW,200,0.0,2.0,73,0.00,,,0.00,,2013-10-19 21:54:00,
2013-10-19 18:14:00,84.0,74.0,29.88,SSW,205,0.0,3.0,71,0.00,,,0.00,,2013-10-19 22:14:00,
2013-10-19 18:24:00,83.0,74.0,29.88,SW,221,0.0,3.0,75,0.00,,,0.00,,2013-10-19 22:24:00,
2013-10-19 18:43:00,82.0,75.0,29.88,SW,226,0.0,2.0,80,0.00,,,0.00,,2013-10-19 22:43:00,
2013-10-19 18:53:00,82.0,74.0,29.88,NW,313,1.0,4.0,78,0.00,,,0.00,,2013-10-19 22:53:00,
2013-10-19 19:12:00,81.0,74.0,29.88,WNW,295,2.0,8.0,80,0.00,,,0.00,,2013-10-19 23:12:00,
2013-10-19 19:22:00,80.0,73.0,29.89,WNW,285,2.0,6.0,80,0.00,,,0.00,,2013-10-19 23:22:00,
2013-10-19 19:42:00,80.0,74.0,29.89,NW,306,0.0,6.0,82,0.00,,,0.00,,2013-10-19 23:42:00,
2013-10-19 19:52:00,79.0,73.0,29.90,West,281,1.0,5.0,83,0.00,,,0.00,,2013-10-19 23:52:00,
2013-10-19 20:11:00,79.0,74.0,29.91,West,269,2.0,5.0,85,0.00,,,0.00,,2013-10-20 00:11:00,
2013-10-19 20:23:00,77.0,74.0,29.90,WNW,288,2.0,7.0,89,0.00,,,0.00,,2013-10-20 00:23:00,
2013-10-19 20:42:00,76.0,73.0,29.91,WNW,294,1.0,3.0,90,0.00,,,0.00,,2013-10-20 00:42:00,
2013-10-19 20:52:00,76.0,73.0,29.91,West,267,2.0,5.0,89,0.00,,,0.00,,2013-10-20 00:52:00,
2013-10-19 21:11:00,76.0,73.0,29.92,West,276,3.0,8.0,90,0.00,,,0.00,,2013-10-20 01:11:00,
2013-10-19 21:22:00,76.0,73.0,29.92,WNW,298,0.0,3.0,91,0.00,,,0.00,,2013-10-20 01:22:00,
2013-10-19 21:42:00,75.0,73.0,29.92,WNW,298,0.0,4.0,92,0.00,,,0.00,,2013-10-20 01:42:00,
2013-10-19 21:52:00,75.0,73.0,29.92,NNW,342,0.0,2.0,94,0.00,,,0.00,,2013-10-20 01:52:00,
2013-10-19 22:12:00,74.0,72.0,29.93,NNW,342,0.0,1.0,94,0.00,,,0.00,,2013-10-20 02:12:00,
2013-10-19 22:22:00,74.0,72.0,29.93,NNW,342,0.0,1.0,95,0.00,,,0.00,,2013-10-20 02:22:00,
2013-10-19 22:42:00,73.0,71.0,29.92,NNW,342,0.0,0.0,95,0.00,,,0.00,,2013-10-20 02:42:00,
2013-10-19 22:52:00,73.0,72.0,29.92,NNW,342,0.0,0.0,96,0.00,,,0.00,,2013-10-20 02:52:00,
2013-10-19 23:12:00,73.0,72.0,29.92,NNW,342,0.0,2.0,96,0.00,,,0.00,,2013-10-20 03:12:00,
2013-10-19 23:22:00,73.0,72.0,29.92,NNW,342,0.0,2.0,96,0.00,,,0.00,,2013-10-20 03:22:00,
2013-10-19 23:44:00,72.0,71.0,29.92,NNW,342,0.0,0.0,96,0.00,,,0.00,,2013-10-20 03:44:00,
2013-10-19 23:54:00,72.0,71.0,29.93,NNW,342,0.0,0.0,97,0.00,,,0.00,,2013-10-20 03:54:00,